Volver al catálogo

THORAD AGENA D DEB

ActivoLEO
NORAD 22532·DEBRIS·🇺🇸 United States

Lanzado Apr 8, 1970 desde Vandenberg Space Force Base

Loading…

Próximos Pases (próximas 24 horas)

TLE

ActualizadoSource: Space-Track

Época: Sep 14, 2026, 00:43 UTC

1 22532U 70025QN  26257.03047189  .00000817  00000-0  97570-3 0  9999
2 22532 100.0920  90.3010 0005323  12.7161 138.9774 13.70619742664827

Sigue THORAD AGENA D DEB en tiempo real con AllMySat

Download on the App Store